| time (UTC) | temp F | wind direction | speed MPH | gust MPH | rain 1hr in | rain 24hr in | rain mn in | humidity % | barometer mb |
| 20260509160704 | 76 | 65 | 3.0 | 8.0 | 0.00 | 0.00 | 0.00 | 21 | 1015.4 |
| 20260509160204 | 75 | 63 | 4.0 | 7.0 | 0.00 | 0.00 | 0.00 | 21 | 1015.4 |
| 20260509155704 | 75 | 77 | 3.0 | 7.0 | 0.00 | 0.00 | 0.00 | 20 | 1015.4 |
| 20260509155204 | 74 | 60 | 4.0 | 7.0 | 0.00 | 0.00 | 0.00 | 21 | 1015.4 |
| 20260509154705 | 74 | 42 | 4.0 | 7.0 | 0.00 | 0.00 | 0.00 | 22 | 1015.3 |
| 20260509154204 | 74 | 43 | 3.0 | 7.0 | 0.00 | 0.00 | 0.00 | 23 | 1015.4 |
| 20260509153704 | 74 | 49 | 3.0 | 7.0 | 0.00 | 0.00 | 0.00 | 23 | 1015.5 |
| 20260509153204 | 73 | 55 | 3.0 | 8.0 | 0.00 | 0.00 | 0.00 | 23 | 1015.5 |
| 20260509152204 | 73 | 74 | 2.0 | 9.0 | 0.00 | 0.00 | 0.00 | 23 | 1015.6 |
| 20260509151704 | 73 | 78 | 3.0 | 9.0 | 0.00 | 0.00 | 0.00 | 23 | 1015.5 |
| 20260509151204 | 72 | 78 | 4.0 | 8.0 | 0.00 | 0.00 | 0.00 | 24 | 1015.5 |
| 20260509150705 | 72 | 47 | 3.0 | 5.0 | 0.00 | 0.00 | 0.00 | 24 | 1015.4 |
| 20260509150204 | 71 | 8 | 3.0 | 4.0 | 0.00 | 0.00 | 0.00 | 25 | 1015.5 |
| 20260509145705 | 70 | 7 | 3.0 | 4.0 | 0.00 | 0.00 | 0.00 | 26 | 1015.5 |
| 20260509145204 | 70 | 7 | 2.0 | 5.0 | 0.00 | 0.00 | 0.00 | 26 | 1015.5 |
| 20260509144204 | 69 | 7 | 2.0 | 5.0 | 0.00 | 0.00 | 0.00 | 27 | 1015.5 |
| 20260509143704 | 68 | 358 | 2.0 | 4.0 | 0.00 | 0.00 | 0.00 | 28 | 1015.5 |
| 20260509143205 | 67 | 358 | 2.0 | 4.0 | 0.00 | 0.00 | 0.00 | 28 | 1015.5 |
| 20260509142706 | 66 | 358 | 2.0 | 4.0 | 0.00 | 0.00 | 0.00 | 29 | 1015.5 |
| 20260509142204 | 66 | 358 | 3.0 | 5.0 | 0.00 | 0.00 | 0.00 | 29 | 1015.5 |
| 20260509141704 | 65 | 358 | 3.0 | 5.0 | 0.00 | 0.00 | 0.00 | 29 | 1015.5 |
| 20260509141204 | 64 | 358 | 4.0 | 5.0 | 0.00 | 0.00 | 0.00 | 29 | 1015.4 |
| 20260509140704 | 63 | 358 | 4.0 | 5.0 | 0.00 | 0.00 | 0.00 | 29 | 1015.4 |
| 20260509140204 | 63 | 358 | 3.0 | 6.0 | 0.00 | 0.00 | 0.00 | 30 | 1015.4 |
| 20260509135704 | 62 | 358 | 4.0 | 6.0 | 0.00 | 0.00 | 0.00 | 30 | 1015.4 |
| 20260509134704 | 61 | 358 | 4.0 | 8.0 | 0.00 | 0.00 | 0.00 | 31 | 1015.3 |
| 20260509134205 | 60 | 358 | 4.0 | 8.0 | 0.00 | 0.00 | 0.00 | 31 | 1015.2 |
| 20260509133704 | 60 | 358 | 5.0 | 8.0 | 0.00 | 0.00 | 0.00 | 31 | 1015.3 |
| 20260509133204 | 59 | 358 | 5.0 | 8.0 | 0.00 | 0.00 | 0.00 | 31 | 1015.2 |
| 20260509132703 | 58 | 353 | 5.0 | 6.0 | 0.00 | 0.00 | 0.00 | 32 | 1015.2 |
| 20260509132204 | 57 | 353 | 4.0 | 6.0 | 0.00 | 0.00 | 0.00 | 33 | 1015.1 |
| 20260509131704 | 57 | 353 | 4.0 | 6.0 | 0.00 | 0.00 | 0.00 | 33 | 1015.1 |
| 20260509131204 | 56 | 346 | 5.0 | 6.0 | 0.00 | 0.00 | 0.00 | 33 | 1015.0 |
| 20260509130204 | 56 | 345 | 4.0 | 5.0 | 0.00 | 0.00 | 0.00 | 33 | 1015.0 |
| 20260509125704 | 56 | 345 | 4.0 | 6.0 | 0.00 | 0.00 | 0.00 | 34 | 1014.9 |
| 20260509125204 | 56 | 345 | 5.0 | 6.0 | 0.00 | 0.00 | 0.00 | 34 | 1014.9 |
| 20260509124704 | 56 | 345 | 5.0 | 6.0 | 0.00 | 0.00 | 0.00 | 34 | 1014.9 |
| 20260509124205 | 56 | 345 | 4.0 | 6.0 | 0.00 | 0.00 | 0.00 | 34 | 1014.9 |
| 20260509123704 | 56 | 345 | 4.0 | 6.0 | 0.00 | 0.00 | 0.00 | 34 | 1014.9 |
| 20260509122704 | 56 | 345 | 5.0 | 6.0 | 0.00 | 0.00 | 0.00 | 34 | 1014.6 |
| 20260509122205 | 56 | 345 | 5.0 | 6.0 | 0.00 | 0.00 | 0.00 | 34 | 1014.6 |
| 20260509121704 | 57 | 345 | 4.0 | 6.0 | 0.00 | 0.00 | 0.00 | 34 | 1014.5 |
| 20260509121205 | 57 | 345 | 5.0 | 6.0 | 0.00 | 0.00 | 0.00 | 33 | 1014.5 |
| 20260509120705 | 57 | 345 | 5.0 | 6.0 | 0.00 | 0.00 | 0.00 | 34 | 1014.5 |
| 20260509120204 | 57 | 344 | 5.0 | 6.0 | 0.00 | 0.00 | 0.00 | 34 | 1014.5 |
| 20260509115704 | 57 | 344 | 5.0 | 6.0 | 0.00 | 0.00 | 0.00 | 34 | 1014.5 |
| 20260509115205 | 58 | 344 | 4.0 | 5.0 | 0.00 | 0.00 | 0.00 | 34 | 1014.5 |
| 20260509114704 | 58 | 344 | 4.0 | 5.0 | 0.00 | 0.00 | 0.00 | 34 | 1014.6 |
| 20260509114204 | 58 | 344 | 4.0 | 5.0 | 0.00 | 0.00 | 0.00 | 34 | 1014.5 |
| 20260509113204 | 58 | 344 | 4.0 | 6.0 | 0.00 | 0.00 | 0.00 | 35 | 1014.6 |
| 20260509112703 | 57 | 344 | 5.0 | 8.0 | 0.00 | 0.00 | 0.00 | 35 | 1014.5 |
| 20260509112203 | 57 | 344 | 5.0 | 8.0 | 0.00 | 0.00 | 0.00 | 36 | 1014.6 |
| 20260509111704 | 57 | 344 | 5.0 | 8.0 | 0.00 | 0.00 | 0.00 | 35 | 1014.7 |
| 20260509110704 | 57 | 344 | 4.0 | 6.0 | 0.00 | 0.00 | 0.00 | 36 | 1014.7 |
| 20260509110205 | 58 | 344 | 4.0 | 6.0 | 0.00 | 0.00 | 0.00 | 36 | 1014.7 |
| 20260509105706 | 58 | 344 | 4.0 | 6.0 | 0.00 | 0.00 | 0.00 | 35 | 1014.7 |
| 20260509105204 | 58 | 344 | 5.0 | 6.0 | 0.00 | 0.00 | 0.00 | 35 | 1014.7 |
| 20260509104705 | 58 | 344 | 5.0 | 8.0 | 0.00 | 0.00 | 0.00 | 36 | 1014.7 |
| 20260509103704 | 58 | 344 | 5.0 | 8.0 | 0.00 | 0.00 | 0.00 | 36 | 1014.7 |
| 20260509103204 | 58 | 344 | 4.0 | 6.0 | 0.00 | 0.00 | 0.00 | 36 | 1014.7 |
| 20260509102704 | 58 | 343 | 4.0 | 6.0 | 0.00 | 0.00 | 0.00 | 37 | 1014.9 |
| 20260509102204 | 58 | 343 | 4.0 | 8.0 | 0.00 | 0.00 | 0.00 | 37 | 1014.9 |
| 20260509100705 | 58 | 343 | 4.0 | 6.0 | 0.00 | 0.00 | 0.00 | 39 | 1014.9 |
| 20260509095205 | 58 | 343 | 5.0 | 8.0 | 0.00 | 0.00 | 0.00 | 41 | 1015.0 |
| 20260509094204 | 59 | 344 | 4.0 | 6.0 | 0.00 | 0.00 | 0.00 | 41 | 1015.0 |
| 20260509093204 | 59 | 346 | 5.0 | 8.0 | 0.00 | 0.00 | 0.00 | 42 | 1015.0 |
| 20260509092704 | 59 | 346 | 5.0 | 8.0 | 0.00 | 0.00 | 0.00 | 42 | 1015.1 |
| 20260509092204 | 59 | 346 | 5.0 | 8.0 | 0.00 | 0.00 | 0.00 | 43 | 1015.1 |
| 20260509091705 | 58 | 346 | 5.0 | 8.0 | 0.00 | 0.00 | 0.00 | 44 | 1015.1 |
| 20260509090704 | 59 | 344 | 4.0 | 6.0 | 0.00 | 0.00 | 0.00 | 45 | 1015.1 |
| 20260509090204 | 59 | 344 | 4.0 | 6.0 | 0.00 | 0.00 | 0.00 | 45 | 1015.1 |
| 20260509085204 | 60 | 344 | 4.0 | 8.0 | 0.00 | 0.00 | 0.00 | 46 | 1015.2 |
| 20260509084704 | 60 | 344 | 4.0 | 8.0 | 0.00 | 0.00 | 0.00 | 46 | 1015.3 |
| 20260509084204 | 60 | 344 | 5.0 | 9.0 | 0.00 | 0.00 | 0.00 | 46 | 1015.3 |
| 20260509083706 | 61 | 344 | 5.0 | 9.0 | 0.00 | 0.00 | 0.00 | 46 | 1015.4 |
| 20260509083204 | 60 | 345 | 4.0 | 9.0 | 0.00 | 0.00 | 0.00 | 46 | 1015.4 |
| 20260509082704 | 61 | 345 | 4.0 | 6.0 | 0.00 | 0.00 | 0.00 | 46 | 1015.4 |
| 20260509082204 | 61 | 346 | 4.0 | 6.0 | 0.00 | 0.00 | 0.00 | 45 | 1015.4 |
| 20260509081704 | 61 | 346 | 4.0 | 6.0 | 0.00 | 0.00 | 0.00 | 45 | 1015.4 |
| 20260509081204 | 61 | 346 | 4.0 | 8.0 | 0.00 | 0.00 | 0.00 | 45 | 1015.5 |
| 20260509075704 | 61 | 344 | 5.0 | 9.0 | 0.00 | 0.00 | 0.00 | 47 | 1015.6 |
| 20260509075204 | 61 | 340 | 5.0 | 9.0 | 0.00 | 0.00 | 0.00 | 47 | 1015.6 |
| 20260509074704 | 61 | 339 | 5.0 | 9.0 | 0.00 | 0.00 | 0.00 | 47 | 1015.6 |
| 20260509073704 | 61 | 334 | 6.0 | 9.0 | 0.00 | 0.00 | 0.00 | 48 | 1015.7 |
| 20260509073204 | 61 | 332 | 6.0 | 9.0 | 0.00 | 0.00 | 0.00 | 49 | 1015.7 |
| 20260509072704 | 61 | 331 | 6.0 | 9.0 | 0.00 | 0.00 | 0.00 | 49 | 1015.7 |
| 20260509072205 | 62 | 338 | 5.0 | 6.0 | 0.00 | 0.00 | 0.00 | 49 | 1015.7 |
| 20260509071204 | 62 | 344 | 4.0 | 5.0 | 0.00 | 0.00 | 0.00 | 47 | 1015.7 |
| 20260509070204 | 62 | 345 | 4.0 | 5.0 | 0.00 | 0.00 | 0.00 | 48 | 1015.7 |
| 20260509065704 | 62 | 345 | 4.0 | 4.0 | 0.00 | 0.00 | 0.00 | 49 | 1015.7 |
| 20260509064704 | 63 | 345 | 3.0 | 5.0 | 0.00 | 0.00 | 0.00 | 50 | 1015.6 |
| 20260509064204 | 63 | 345 | 3.0 | 5.0 | 0.00 | 0.00 | 0.00 | 49 | 1015.7 |
| 20260509063704 | 64 | 345 | 3.0 | 5.0 | 0.00 | 0.00 | 0.00 | 48 | 1015.9 |
| 20260509063204 | 64 | 345 | 2.0 | 4.0 | 0.00 | 0.00 | 0.00 | 48 | 1015.9 |
| 20260509062704 | 64 | 345 | 2.0 | 6.0 | 0.00 | 0.00 | 0.00 | 48 | 1015.9 |
| 20260509061705 | 65 | 345 | 4.0 | 6.0 | 0.00 | 0.00 | 0.00 | 48 | 1015.9 |
| 20260509061204 | 65 | 344 | 4.0 | 9.0 | 0.00 | 0.00 | 0.00 | 48 | 1015.9 |
| 20260509060705 | 65 | 340 | 5.0 | 9.0 | 0.00 | 0.00 | 0.00 | 46 | 1015.9 |
| 20260509060204 | 66 | 332 | 6.0 | 10.0 | 0.00 | 0.00 | 0.00 | 44 | 1015.9 |
| 20260509055204 | 66 | 340 | 7.0 | 10.0 | 0.00 | 0.00 | 0.00 | 43 | 1015.7 |
| 20260509054704 | 66 | 331 | 6.0 | 9.0 | 0.00 | 0.00 | 0.00 | 43 | 1015.7 |
| 20260509054204 | 66 | 339 | 5.0 | 9.0 | 0.00 | 0.00 | 0.00 | 42 | 1015.9 |
| 20260509053704 | 67 | 340 | 5.0 | 9.0 | 0.00 | 0.00 | 0.00 | 42 | 1016.0 |
| 20260509053204 | 67 | 339 | 5.0 | 9.0 | 0.00 | 0.00 | 0.00 | 42 | 1016.0 |
| 20260509052704 | 67 | 336 | 5.0 | 9.0 | 0.00 | 0.00 | 0.00 | 42 | 1016.0 |
| 20260509052204 | 67 | 330 | 5.0 | 9.0 | 0.00 | 0.00 | 0.00 | 41 | 1016.0 |
| 20260509050704 | 67 | 329 | 6.0 | 11.0 | 0.00 | 0.00 | 0.00 | 44 | 1016.0 |
| 20260509050204 | 67 | 321 | 6.0 | 11.0 | 0.00 | 0.00 | 0.00 | 46 | 1016.0 |
| 20260509045704 | 67 | 319 | 8.0 | 12.0 | 0.00 | 0.00 | 0.00 | 47 | 1015.9 |
| 20260509045204 | 67 | 315 | 9.0 | 12.0 | 0.00 | 0.00 | 0.00 | 48 | 1015.9 |
| 20260509044704 | 67 | 323 | 8.0 | 12.0 | 0.00 | 0.00 | 0.00 | 48 | 1015.9 |
| 20260509044204 | 67 | 331 | 7.0 | 11.0 | 0.00 | 0.00 | 0.00 | 49 | 1015.9 |
| 20260509043704 | 67 | 327 | 7.0 | 13.0 | 0.00 | 0.00 | 0.00 | 48 | 1015.9 |
| 20260509043204 | 67 | 348 | 7.0 | 13.0 | 0.00 | 0.00 | 0.00 | 48 | 1015.9 |
| 20260509042205 | 68 | 331 | 9.0 | 13.0 | 0.00 | 0.00 | 0.00 | 47 | 1015.7 |
| 20260509041705 | 68 | 319 | 9.0 | 13.0 | 0.00 | 0.00 | 0.00 | 47 | 1015.7 |
| 20260509041204 | 68 | 320 | 10.0 | 13.0 | 0.00 | 0.00 | 0.00 | 46 | 1015.6 |
| 20260509040704 | 69 | 330 | 9.0 | 14.0 | 0.00 | 0.00 | 0.00 | 45 | 1015.6 |
| 20260509040204 | 69 | 317 | 9.0 | 15.0 | 0.00 | 0.00 | 0.00 | 44 | 1015.5 |
| 20260509035704 | 69 | 325 | 10.0 | 15.0 | 0.00 | 0.00 | 0.00 | 43 | 1015.4 |
| 20260509035204 | 69 | 326 | 10.0 | 15.0 | 0.00 | 0.00 | 0.00 | 42 | 1015.4 |
| 20260509034704 | 69 | 331 | 10.0 | 15.0 | 0.00 | 0.00 | 0.00 | 41 | 1015.4 |
| 20260509033704 | 70 | 329 | 9.0 | 13.0 | 0.00 | 0.00 | 0.00 | 40 | 1015.3 |
| 20260509032705 | 70 | 327 | 9.0 | 14.0 | 0.00 | 0.00 | 0.00 | 40 | 1015.2 |
| 20260509031704 | 71 | 316 | 8.0 | 11.0 | 0.00 | 0.00 | 0.00 | 41 | 1015.2 |
| 20260509031204 | 71 | 330 | 7.0 | 11.0 | 0.00 | 0.00 | 0.00 | 41 | 1015.1 |
| 20260509030704 | 72 | 313 | 7.0 | 12.0 | 0.00 | 0.00 | 0.00 | 41 | 1015.1 |
| 20260509030204 | 73 | 317 | 7.0 | 12.0 | 0.00 | 0.00 | 0.00 | 39 | 1015.0 |
| 20260509025704 | 74 | 325 | 6.0 | 10.0 | 0.00 | 0.00 | 0.00 | 38 | 1015.0 |
| 20260509025205 | 76 | 326 | 5.0 | 10.0 | 0.00 | 0.00 | 0.00 | 36 | 1015.0 |
| 20260509024704 | 76 | 358 | 4.0 | 9.0 | 0.00 | 0.00 | 0.00 | 36 | 1014.9 |
| 20260509024204 | 77 | 358 | 4.0 | 9.0 | 0.00 | 0.00 | 0.00 | 35 | 1014.7 |
| 20260509023204 | 77 | 358 | 4.0 | 12.0 | 0.00 | 0.00 | 0.00 | 34 | 1014.6 |
| 20260509022704 | 77 | 358 | 5.0 | 12.0 | 0.00 | 0.00 | 0.00 | 34 | 1014.5 |
| 20260509022204 | 78 | 358 | 5.0 | 12.0 | 0.00 | 0.00 | 0.00 | 35 | 1014.5 |
| 20260509021704 | 78 | 63 | 5.0 | 10.0 | 0.00 | 0.00 | 0.00 | 35 | 1014.4 |
| 20260509021204 | 78 | 67 | 5.0 | 10.0 | 0.00 | 0.00 | 0.00 | 35 | 1014.3 |
| 20260509020204 | 79 | 74 | 6.0 | 14.0 | 0.00 | 0.00 | 0.00 | 35 | 1014.4 |
| 20260509015704 | 80 | 45 | 6.0 | 14.0 | 0.00 | 0.00 | 0.00 | 35 | 1014.3 |
| 20260509015204 | 80 | 30 | 6.0 | 11.0 | 0.00 | 0.00 | 0.00 | 34 | 1014.2 |
| 20260509014704 | 81 | 358 | 5.0 | 11.0 | 0.00 | 0.00 | 0.00 | 34 | 1014.2 |
| 20260509014204 | 81 | 49 | 5.0 | 11.0 | 0.00 | 0.00 | 0.00 | 32 | 1014.1 |
| 20260509013704 | 82 | 52 | 4.0 | 11.0 | 0.00 | 0.00 | 0.00 | 32 | 1014.1 |
| 20260509013204 | 83 | 76 | 4.0 | 10.0 | 0.00 | 0.00 | 0.00 | 30 | 1014.1 |
| 20260509012704 | 83 | 57 | 4.0 | 10.0 | 0.00 | 0.00 | 0.00 | 29 | 1014.0 |
| 20260509012204 | 84 | 76 | 4.0 | 10.0 | 0.00 | 0.00 | 0.00 | 29 | 1014.0 |
| 20260509011704 | 84 | 64 | 4.0 | 10.0 | 0.00 | 0.00 | 0.00 | 28 | 1014.0 |
| 20260509010204 | 84 | 51 | 5.0 | 16.0 | 0.00 | 0.00 | 0.00 | 29 | 1014.0 |
| 20260509005704 | 84 | 99 | 5.0 | 16.0 | 0.00 | 0.00 | 0.00 | 30 | 1013.9 |
| 20260509005204 | 83 | 165 | 5.0 | 16.0 | 0.00 | 0.00 | 0.00 | 31 | 1013.9 |
| 20260509004705 | 84 | 44 | 4.0 | 13.0 | 0.00 | 0.00 | 0.00 | 28 | 1014.0 |
| 20260509004204 | 83 | 46 | 5.0 | 13.0 | 0.00 | 0.00 | 0.00 | 30 | 1013.9 |
| 20260509003704 | 84 | 208 | 7.0 | 13.0 | 0.00 | 0.00 | 0.00 | 30 | 1013.9 |
| 20260509003204 | 84 | 344 | 9.0 | 13.0 | 0.00 | 0.00 | 0.00 | 30 | 1013.9 |
| 20260509002204 | 84 | 336 | 8.0 | 17.0 | 0.00 | 0.00 | 0.00 | 31 | 1013.8 |
| 20260509001704 | 83 | 306 | 10.0 | 22.0 | 0.00 | 0.00 | 0.00 | 31 | 1013.8 |
| 20260509001204 | 84 | 277 | 11.0 | 22.0 | 0.00 | 0.00 | 0.00 | 31 | 1013.8 |
| 20260509000704 | 83 | 316 | 12.0 | 22.0 | 0.00 | 0.00 | 0.00 | 31 | 1013.8 |
| 20260508235704 | 84 | 335 | 12.0 | 20.0 | 0.00 | 0.00 | 0.00 | 30 | 1013.8 |
| 20260508235204 | 84 | 267 | 13.0 | 21.0 | 0.00 | 0.00 | 0.00 | 30 | 1013.8 |
| 20260508234706 | 84 | 307 | 14.0 | 21.0 | 0.00 | 0.00 | 0.00 | 31 | 1013.8 |
| 20260508234204 | 83 | 327 | 14.0 | 21.0 | 0.00 | 0.00 | 0.00 | 31 | 1013.9 |
| 20260508233704 | 84 | 313 | 14.0 | 21.0 | 0.00 | 0.00 | 0.00 | 30 | 1013.9 |
| 20260508232704 | 84 | 313 | 14.0 | 22.0 | 0.00 | 0.00 | 0.00 | 29 | 1013.8 |
| 20260508231204 | 85 | 296 | 14.0 | 21.0 | 0.00 | 0.00 | 0.00 | 28 | 1014.0 |
| 20260508230204 | 86 | 311 | 13.0 | 18.0 | 0.00 | 0.00 | 0.00 | 26 | 1014.0 |
| 20260508225204 | 86 | 304 | 12.0 | 18.0 | 0.00 | 0.00 | 0.00 | 25 | 1014.1 |
| 20260508224704 | 87 | 317 | 12.0 | 18.0 | 0.00 | 0.00 | 0.00 | 24 | 1014.2 |
| 20260508224205 | 87 | 289 | 12.0 | 18.0 | 0.00 | 0.00 | 0.00 | 25 | 1014.2 |
| 20260508223705 | 87 | 311 | 12.0 | 18.0 | 0.00 | 0.00 | 0.00 | 23 | 1014.2 |
| 20260508223204 | 87 | 304 | 11.0 | 18.0 | 0.00 | 0.00 | 0.00 | 24 | 1014.3 |
| 20260508222704 | 87 | 316 | 12.0 | 18.0 | 0.00 | 0.00 | 0.00 | 24 | 1014.3 |
| 20260508221705 | 87 | 285 | 13.0 | 17.0 | 0.00 | 0.00 | 0.00 | 23 | 1014.4 |
| 20260508221204 | 87 | 313 | 12.0 | 17.0 | 0.00 | 0.00 | 0.00 | 23 | 1014.4 |
| 20260508220705 | 88 | 298 | 11.0 | 17.0 | 0.00 | 0.00 | 0.00 | 23 | 1014.4 |
| 20260508220204 | 88 | 284 | 9.0 | 15.0 | 0.00 | 0.00 | 0.00 | 21 | 1014.5 |
| 20260508215706 | 89 | 300 | 8.0 | 15.0 | 0.00 | 0.00 | 0.00 | 22 | 1014.5 |
| 20260508214704 | 89 | 313 | 3.0 | 7.0 | 0.00 | 0.00 | 0.00 | 17 | 1014.6 |
| 20260508214205 | 90 | 189 | 4.0 | 9.0 | 0.00 | 0.00 | 0.00 | 17 | 1014.7 |
| 20260508213706 | 89 | 158 | 4.0 | 13.0 | 0.00 | 0.00 | 0.00 | 16 | 1014.7 |
| 20260508213204 | 89 | 157 | 5.0 | 13.0 | 0.00 | 0.00 | 0.00 | 16 | 1014.7 |
| 20260508212704 | 89 | 124 | 5.0 | 13.0 | 0.00 | 0.00 | 0.00 | 16 | 1014.9 |
| 20260508212204 | 90 | 22 | 5.0 | 10.0 | 0.00 | 0.00 | 0.00 | 16 | 1015.0 |
| 20260508211704 | 89 | 91 | 4.0 | 10.0 | 0.00 | 0.00 | 0.00 | 16 | 1015.0 |
| 20260508211206 | 90 | 97 | 4.0 | 10.0 | 0.00 | 0.00 | 0.00 | 15 | 1015.1 |
| 20260508210704 | 89 | 86 | 4.0 | 10.0 | 0.00 | 0.00 | 0.00 | 16 | 1015.2 |
| 20260508210204 | 89 | 54 | 3.0 | 10.0 | 0.00 | 0.00 | 0.00 | 16 | 1015.2 |
| 20260508205704 | 89 | 139 | 4.0 | 10.0 | 0.00 | 0.00 | 0.00 | 17 | 1015.3 |
| 20260508205204 | 89 | 77 | 4.0 | 12.0 | 0.00 | 0.00 | 0.00 | 17 | 1015.4 |
| 20260508204704 | 89 | 91 | 4.0 | 12.0 | 0.00 | 0.00 | 0.00 | 17 | 1015.4 |
| 20260508204205 | 89 | 348 | 5.0 | 10.0 | 0.00 | 0.00 | 0.00 | 16 | 1015.5 |
| 20260508203204 | 88 | 65 | 4.0 | 10.0 | 0.00 | 0.00 | 0.00 | 16 | 1015.4 |
| 20260508202704 | 88 | 124 | 3.0 | 11.0 | 0.00 | 0.00 | 0.00 | 17 | 1015.5 |
| 20260508202204 | 87 | 44 | 5.0 | 11.0 | 0.00 | 0.00 | 0.00 | 17 | 1015.6 |
| 20260508201704 | 87 | 347 | 6.0 | 11.0 | 0.00 | 0.00 | 0.00 | 17 | 1015.7 |
| 20260508201204 | 87 | 87 | 4.0 | 10.0 | 0.00 | 0.00 | 0.00 | 16 | 1015.7 |
| 20260508200704 | 87 | 65 | 3.0 | 10.0 | 0.00 | 0.00 | 0.00 | 17 | 1015.9 |
| 20260508200204 | 86 | 73 | 4.0 | 10.0 | 0.00 | 0.00 | 0.00 | 17 | 1015.9 |
| 20260508195205 | 87 | 80 | 3.0 | 8.0 | 0.00 | 0.00 | 0.00 | 17 | 1016.0 |
| 20260508194204 | 85 | 209 | 5.0 | 10.0 | 0.00 | 0.00 | 0.00 | 18 | 1016.2 |
| 20260508193704 | 85 | 92 | 5.0 | 10.0 | 0.00 | 0.00 | 0.00 | 17 | 1016.2 |
| 20260508193205 | 86 | 100 | 5.0 | 10.0 | 0.00 | 0.00 | 0.00 | 17 | 1016.3 |
| 20260508192704 | 85 | 100 | 4.0 | 11.0 | 0.00 | 0.00 | 0.00 | 17 | 1016.3 |
| 20260508192204 | 85 | 111 | 6.0 | 11.0 | 0.00 | 0.00 | 0.00 | 17 | 1016.4 |
| 20260508191704 | 85 | 161 | 5.0 | 11.0 | 0.00 | 0.00 | 0.00 | 17 | 1016.4 |
| 20260508191204 | 85 | 103 | 4.0 | 10.0 | 0.00 | 0.00 | 0.00 | 17 | 1016.4 |
| 20260508190204 | 85 | 94 | 4.0 | 11.0 | 0.00 | 0.00 | 0.00 | 16 | 1016.5 |
| 20260508185204 | 83 | 82 | 5.0 | 10.0 | 0.00 | 0.00 | 0.00 | 17 | 1016.6 |
| 20260508184204 | 83 | 12 | 5.0 | 10.0 | 0.00 | 0.00 | 0.00 | 19 | 1016.7 |
| 20260508183204 | 83 | 65 | 5.0 | 11.0 | 0.00 | 0.00 | 0.00 | 18 | 1016.7 |
| 20260508182704 | 83 | 90 | 6.0 | 10.0 | 0.00 | 0.00 | 0.00 | 17 | 1016.8 |
| 20260508182205 | 82 | 83 | 5.0 | 11.0 | 0.00 | 0.00 | 0.00 | 19 | 1016.8 |
| 20260508181704 | 83 | 67 | 4.0 | 11.0 | 0.00 | 0.00 | 0.00 | 21 | 1016.8 |
| 20260508181204 | 83 | 75 | 5.0 | 13.0 | 0.00 | 0.00 | 0.00 | 20 | 1017.0 |
| 20260508180704 | 83 | 88 | 5.0 | 13.0 | 0.00 | 0.00 | 0.00 | 22 | 1017.0 |
| 20260508175703 | 82 | 99 | 5.0 | 13.0 | 0.00 | 0.00 | 0.00 | 21 | 1017.0 |
| 20260508175204 | 82 | 51 | 6.0 | 16.0 | 0.00 | 0.00 | 0.00 | 20 | 1017.0 |
| 20260508174706 | 82 | 79 | 8.0 | 16.0 | 0.00 | 0.00 | 0.00 | 21 | 1017.0 |
| 20260508174204 | 81 | 358 | 7.0 | 13.0 | 0.00 | 0.00 | 0.00 | 21 | 1017.0 |
| 20260508173704 | 81 | 84 | 5.0 | 12.0 | 0.00 | 0.00 | 0.00 | 21 | 1017.1 |
| 20260508173204 | 81 | 78 | 6.0 | 11.0 | 0.00 | 0.00 | 0.00 | 21 | 1017.0 |
| 20260508172704 | 81 | 66 | 5.0 | 12.0 | 0.00 | 0.00 | 0.00 | 21 | 1017.1 |
| 20260508172204 | 80 | 88 | 6.0 | 12.0 | 0.00 | 0.00 | 0.00 | 21 | 1017.0 |
| 20260508171704 | 80 | 58 | 7.0 | 12.0 | 0.00 | 0.00 | 0.00 | 21 | 1017.0 |
| 20260508171204 | 79 | 96 | 6.0 | 12.0 | 0.00 | 0.00 | 0.00 | 22 | 1017.1 |
| 20260508170704 | 79 | 65 | 5.0 | 12.0 | 0.00 | 0.00 | 0.00 | 22 | 1017.1 |
| 20260508170204 | 78 | 92 | 5.0 | 12.0 | 0.00 | 0.00 | 0.00 | 25 | 1017.1 |
| 20260508165704 | 79 | 51 | 4.0 | 12.0 | 0.00 | 0.00 | 0.00 | 24 | 1017.1 |
| 20260508165204 | 78 | 81 | 4.0 | 11.0 | 0.00 | 0.00 | 0.00 | 25 | 1017.1 |
| 20260508164705 | 78 | 43 | 5.0 | 11.0 | 0.00 | 0.00 | 0.00 | 26 | 1017.2 |
| 20260508164204 | 78 | 40 | 4.0 | 10.0 | 0.00 | 0.00 | 0.00 | 25 | 1017.2 |
| 20260508163204 | 78 | 76 | 5.0 | 12.0 | 0.00 | 0.00 | 0.00 | 25 | 1017.2 |
| 20260508162705 | 77 | 83 | 4.0 | 12.0 | 0.00 | 0.00 | 0.00 | 26 | 1017.2 |
| 20260508162204 | 77 | 71 | 4.0 | 12.0 | 0.00 | 0.00 | 0.00 | 27 | 1017.1 |
| 20260508161704 | 76 | 88 | 5.0 | 11.0 | 0.00 | 0.00 | 0.00 | 27 | 1017.1 |
| 20260508161204 | 76 | 64 | 5.0 | 11.0 | 0.00 | 0.00 | 0.00 | 28 | 1017.1 |